Effective Sunday, March 17, 2024, the National Weather Service National Data Buoy Center will discontinue its Dial-A-Buoy Interactive Voice Response system. For more information, see Service Change Notice 24-06 (PDF).

Station CHAV3 - 9751639 - Charlotte Amalie, VI Image indicating link to RSS feed of recent meteorological observations for station CHAV3


Conditions at CHAV3 as of
(9:48 pm AST on 02/29/2024)
0148 GMT on 03/01/2024:
     

Click on the graph icon in the table below to see a time series plot of the last five days of that observation.

5-day plot - Wind Direction Wind Direction (WDIR): NE ( 40 deg true )
5-day plot - Wind Speed Wind Speed (WSPD): 12.0 kts
5-day plot - Wind Gust Wind Gust (GST): 14.0 kts
5-day plot - Atmospheric Pressure Atmospheric Pressure (PRES):30.08 in
5-day plot - Air Temperature Air Temperature (ATMP): 78.6 °F
5-day plot - Water Temperature Water Temperature (WTMP): 81.3 °F
5-day plot - Wind Speed at 10 Meters Wind Speed at 10 meters (WSPD10M): 11.7 kts
5-day plot - Wind Speed at 20 Meters Wind Speed at 20 meters (WSPD20M): 13.6 kts
5-day plot -  Wind Speed, Wind Gust and Atmospheric Pressure Combined plot of Wind Speed, Gust, and Air Pressure
NOS Water Level Observation Network Water Level
Previous observations
TIME
(AST)
5-day plot - Wind Direction
WDIR
 
5-day plot - Wind Speed
WSPD
kts
5-day plot - Wind Gust
GST
kts
5-day plot - Wave Height
WVHT
ft
5-day plot - Dominant Wave Period
DPD
sec
5-day plot - Average Wave Period
APD
sec
5-day plot - Mean Wave Direction
MWD
 
5-day plot - Atmospheric Pressure
PRES
in
5-day plot - Pressure Tendency
PTDY
in
5-day plot - Air Temperature
ATMP
°F
5-day plot - Water Temperature
WTMP
°F
5-day plot - Dew Point
DEWP
°F
5-day plot - Salinity
SAL
psu
5-day plot - Visibility
VIS
nmi
5-day plot - Tide (above MLLW)
TIDE
ft
2024-02-29 09:42 pmNNE 8.9 14.0----30.08- 78.6 81.3----
2024-02-29 09:36 pmNNE 12.0 18.1----30.08- 78.6 81.3----
2024-02-29 09:30 pm NE 12.0 15.0----30.08- 78.6 81.3----
2024-02-29 09:24 pm NE 11.1 15.9----30.08- 78.6 81.3----
2024-02-29 09:18 pm NE 12.0 17.1----30.08- 78.6 81.3----
2024-02-29 09:12 pmNNE 11.1 22.0----30.08- 78.6 81.3----
2024-02-29 09:06 pm NE 11.1 14.0----30.08- 78.8 81.3----
2024-02-29 09:00 pmNNE 11.1 18.1----30.08+0.05 78.6 81.3----
2024-02-29 08:54 pm NE 13.0 15.9----30.08- 78.8 81.3----
2024-02-29 08:48 pm NE 13.0 17.1----30.08- 78.6 81.3----
2024-02-29 08:42 pm NE 12.0 19.0----30.08- 78.8 81.3----
2024-02-29 08:36 pm NE 13.0 18.1----30.07- 78.8 81.3----
2024-02-29 08:30 pmNNE 12.0 20.0----30.07- 78.8 81.3----
2024-02-29 08:24 pmENE 9.9 22.0----30.07- 78.6 81.3----
2024-02-29 08:18 pm NE 8.0 15.9----30.07- 78.8 81.3----
2024-02-29 08:12 pmENE 8.9 18.1----30.06- 78.8 81.3----
2024-02-29 08:06 pmNNE 8.0 11.1----30.06- 78.8 81.3----
2024-02-29 08:00 pm NE 6.0 14.0----30.06+0.04 78.8 81.3----
2024-02-29 07:54 pm N 7.0 14.0----30.06- 78.8 81.3----
2024-02-29 07:48 pm NE 8.0 15.9----30.06- 78.8 81.3----
2024-02-29 07:42 pmNNE 8.0 11.1----30.06- 78.8 81.3----
2024-02-29 07:36 pmNNE 7.0 12.0----30.05- 78.8 81.3----
2024-02-29 06:48 pmNNE 8.9 14.0----30.03- 78.8 81.3----
2024-02-29 06:42 pm NE 9.9 15.0----30.03- 78.8 81.3----
2024-02-29 06:36 pmNNE 8.9 15.9----30.03- 79.0 81.5----
2024-02-29 06:30 pmNNE 9.9 17.1----30.02- 79.0 81.5----
2024-02-29 06:24 pm NE 9.9 15.9----30.02- 79.0 81.5----
2024-02-29 06:18 pm NE 8.9 20.0----30.02- 79.2 81.5----
2024-02-29 06:12 pm NE 8.9 17.1----30.02- 79.3 81.3----
2024-02-29 06:06 pm N 12.0 15.0----30.02- 79.2 81.5----
2024-02-29 06:00 pm NE 13.0 21.0----30.03+0.00 79.3 81.7----
2024-02-29 05:54 pmNNE 8.0 15.0----30.03- 79.5 81.7----
2024-02-29 05:48 pm NE 8.9 18.1----30.03- 79.7 81.5----
2024-02-29 05:42 pm NE 7.0 18.1----30.03- 79.7 81.5----
2024-02-29 05:36 pmNNE 9.9 19.0----30.03- 79.7 81.5----
2024-02-29 05:30 pmENE 12.0 19.0----30.03- 79.7 81.5----
2024-02-29 05:24 pmNNE 8.9 20.0----30.03- 79.7 81.5----
2024-02-29 05:18 pm NE 9.9 15.9----30.03- 79.9 81.7----
2024-02-29 05:12 pmENE 7.0 15.0----30.02- 80.1 81.7----
2024-02-29 05:06 pm E 14.0 19.0----30.02- 79.9 81.7----
2024-02-29 05:00 pm E 9.9 15.9----30.02-0.03 79.9 81.7----
2024-02-29 04:54 pmENE 7.0 14.0----30.02- 80.1 81.7----
2024-02-29 04:48 pmENE 9.9 15.9----30.02- 80.1 81.7----
2024-02-29 04:42 pm E 12.0 15.9----30.02- 79.9 81.7----
2024-02-29 04:36 pmENE 11.1 17.1----30.02- 80.2 81.7----
2024-02-29 04:30 pmENE 11.1 15.9----30.02- 80.6 81.7----
2024-02-29 04:24 pmENE 8.0 18.1----30.02- 81.1 81.7----
2024-02-29 04:18 pmENE 8.0 15.0----30.02- 81.3 81.7----
2024-02-29 04:12 pm E 8.9 15.9----30.02- 81.3 81.9----
2024-02-29 04:06 pmENE 7.0 15.0----30.02- 81.7 81.7----
2024-02-29 04:00 pmENE 6.0 15.0----30.02-0.05 81.9 81.5----
2024-02-29 03:54 pm E 9.9 18.1----30.02- 81.0 81.5----
2024-02-29 03:48 pmENE 8.9 15.0----30.02- 81.5 81.7----
2024-02-29 03:42 pm E 5.1 15.0----30.02- 81.5 81.7----
2024-02-29 03:36 pmENE 8.9 15.0----30.02- 81.7 81.5----
2024-02-29 03:30 pmENE 7.0 14.0----30.02- 81.3 81.5----
2024-02-29 03:24 pmENE 8.9 15.0----30.02- 81.3 81.7----
2024-02-29 03:18 pmENE 7.0 15.0----30.02- 81.9 81.5----
2024-02-29 03:12 pmENE 7.0 15.0----30.02- 81.5 81.7----
2024-02-29 03:06 pmENE 8.9 15.0----30.03- 81.5 81.7----
2024-02-29 03:00 pm E 8.9 14.0----30.03-0.06 81.3 81.7----
2024-02-29 02:54 pm E 15.0 21.0----30.03- 80.8 81.7----
2024-02-29 02:48 pm E 12.0 14.0----30.03- 81.3 81.7----
2024-02-29 02:42 pmENE 9.9 14.0----30.03- 81.9 81.5----
2024-02-29 02:36 pmENE 7.0 12.0----30.04- 82.0 81.7----
2024-02-29 02:30 pmENE 7.0 14.0----30.04- 81.1 81.7----
2024-02-29 02:24 pmENE 8.0 14.0----30.04- 82.0 81.5----
2024-02-29 02:18 pmENE 8.9 18.1----30.04- 81.5 81.7----
2024-02-29 02:12 pmENE 8.0 15.0----30.04- 82.2 81.7----
2024-02-29 02:06 pmENE 8.0 14.0----30.05- 81.7 81.5----
2024-02-29 02:00 pmENE 8.0 14.0----30.05-0.06 81.9 81.5----
2024-02-29 01:54 pmENE 8.0 12.0----30.05- 82.4 81.7----
2024-02-29 01:48 pm E 7.0 13.0----30.05- 82.0 81.7----
2024-02-29 01:42 pmENE 8.0 12.0----30.06- 82.6 81.7----
2024-02-29 01:36 pmENE 8.0 13.0----30.06- 82.2 81.7----
2024-02-29 01:30 pm E 5.1 13.0----30.06- 81.9 81.7----
2024-02-29 01:24 pmENE 8.0 12.0----30.06- 81.9 81.7----
2024-02-29 01:18 pmENE 11.1 14.0----30.06- 81.9 81.7----
2024-02-29 01:12 pmENE 8.9 15.0----30.06- 81.7 81.5----
2024-02-29 01:06 pmENE 7.0 14.0----30.07- 81.9 81.5----
2024-02-29 01:00 pmENE 7.0 12.0----30.07-0.03 82.2 81.7----
2024-02-29 12:54 pmENE 8.9 12.0----30.07- 82.0 81.5----
2024-02-29 12:48 pmENE 8.0 12.0----30.07- 82.6 81.3----
2024-02-29 12:42 pmENE 8.0 11.1----30.07- 82.4 81.5----
2024-02-29 12:36 pmENE 7.0 12.0----30.08- 82.2 81.7----
2024-02-29 12:30 pmENE 8.0 12.0----30.08- 82.0 81.3----
2024-02-29 12:24 pmENE 8.0 11.1----30.08- 82.4 81.5----
2024-02-29 12:18 pmENE 8.0 11.1----30.08- 82.2 81.5----
2024-02-29 12:12 pmENE 8.0 12.0----30.08- 82.4 81.5----
2024-02-29 12:06 pmENE 8.0 13.0----30.09- 82.2 81.5----
2024-02-29 12:00 pm E 8.9 12.0----30.09+0.00 82.2 81.3----
2024-02-29 11:54 amENE 8.9 15.0----30.09- 82.0 81.5----
2024-02-29 11:48 amENE 8.9 12.0----30.09- 82.0 81.5----
2024-02-29 11:42 amENE 7.0 12.0----30.09- 82.2 81.3----
2024-02-29 11:36 amENE 8.0 12.0----30.09- 82.4 81.3----
2024-02-29 11:30 amENE 8.0 13.0----30.09- 82.4 81.5----
2024-02-29 11:24 amENE 8.0 12.0----30.10- 82.6 81.3----
2024-02-29 11:18 amENE 8.0 12.0----30.10- 82.6 81.3----
2024-02-29 11:12 amENE 8.0 11.1----30.10- 82.8 81.1----
2024-02-29 11:06 amENE 7.0 13.0----30.10- 82.6 81.3----
2024-02-29 11:00 amENE 7.0 11.1----30.10+0.03 82.6 81.3----
2024-02-29 10:54 amENE 7.0 11.1----30.10- 82.2 81.1----
2024-02-29 10:48 amENE 8.0 13.0----30.10- 82.0 81.1----
2024-02-29 10:42 amENE 8.9 11.1----30.10- 82.2 81.1----
2024-02-29 10:36 amENE 7.0 11.1----30.10- 82.4 81.3----
2024-02-29 10:30 amENE 6.0 11.1----30.10- 81.9 81.3----
2024-02-29 10:24 amENE 7.0 9.9----30.11- 81.3 81.1----
2024-02-29 10:18 amENE 7.0 11.1----30.10- 82.0 81.1----
2024-02-29 10:12 amENE 6.0 11.1----30.10- 82.9 81.1----
2024-02-29 10:06 amENE 4.1 8.9----30.10- 82.9 81.1----
2024-02-29 10:00 amENE 4.1 9.9----30.10+0.04 82.4 81.0----
2024-02-29 09:54 amENE 6.0 8.9----30.09- 81.9 81.1----
2024-02-29 09:48 amENE 7.0 9.9----30.09- 82.2 81.1----
2024-02-29 09:42 amENE 7.0 13.0----30.09- 81.3 81.1----
2024-02-29 09:36 amENE 7.0 12.0----30.09- 81.5 81.1----
2024-02-29 09:30 amENE 7.0 8.9----30.09- 81.7 81.1----
2024-02-29 09:24 amENE 7.0 9.9----30.09- 81.9 81.0----
2024-02-29 09:18 amENE 6.0 12.0----30.09- 81.3 81.0----
2024-02-29 09:12 amENE 8.9 13.0----30.08- 81.5 81.0----
2024-02-29 09:06 amENE 6.0 11.1----30.08- 81.1 81.0----
2024-02-29 09:00 amENE 5.1 8.9----30.08+0.04 80.1 81.0----
2024-02-29 08:54 amENE 8.0 11.1----30.08- 80.1 81.1----
2024-02-29 08:48 amENE 7.0 9.9----30.08- 80.4 81.0----
2024-02-29 08:42 am NE 7.0 13.0----30.08- 80.4 81.0----
2024-02-29 08:36 am NE 8.9 13.0----30.08- 79.9 81.0----
2024-02-29 08:30 am NE 6.0 9.9----30.08- 80.2 81.0----
2024-02-29 08:24 amENE 6.0 9.9----30.08- 80.4 81.0----
2024-02-29 08:18 am NE 5.1 11.1----30.08- 80.1 81.0----
2024-02-29 08:12 amENE 6.0 11.1----30.08- 79.7 81.0----
2024-02-29 08:06 am NE 7.0 9.9----30.08- 79.7 81.0----
2024-02-29 08:00 amENE 8.0 14.0----30.08+0.05 79.2 81.0----
2024-02-29 07:54 am NE 8.0 12.0----30.08- 79.7 81.0----
2024-02-29 07:48 am NE 6.0 8.9----30.07- 79.9 81.0----
2024-02-29 07:42 am NE 6.0 13.0----30.08- 79.2 81.0----
2024-02-29 07:36 am NE 8.9 14.0----30.08- 79.0 81.0----
2024-02-29 07:30 am NE 7.0 13.0----30.07- 79.0 81.0----
2024-02-29 07:24 am NE 8.0 14.0----30.07- 78.8 81.0----
2024-02-29 07:18 amENE 8.9 13.0----30.07- 78.6 81.0----
2024-02-29 07:12 am NE 12.0 15.0----30.06- 78.6 81.0----
2024-02-29 07:06 amNNE 13.0 15.9----30.06- 78.6 81.0----
2024-02-29 07:00 am NE 8.9 12.0----30.06+0.04- 81.0----
2024-02-29 06:54 amNNE 8.0 13.0----30.06-- 81.0----
2024-02-29 06:48 am NE 11.1 15.0----30.06- 78.4 81.0----
2024-02-29 06:42 amNNE 9.9 15.0----30.05- 78.4 81.0----
2024-02-29 06:36 am NE 11.1 17.1----30.05- 78.4 81.0----
2024-02-29 06:30 am NE 8.9 14.0----30.05- 78.4 81.0----
2024-02-29 06:24 amNNE 11.1 14.0----30.05- 78.4 81.0----
2024-02-29 06:18 am NE 8.9 11.1----30.05- 78.3 81.0----
2024-02-29 06:12 am NE 7.0 11.1----30.04- 78.3 81.0----
2024-02-29 06:06 am NE 7.0 9.9----30.04- 78.1 81.0----
2024-02-29 06:00 am NE 7.0 9.9----30.04+0.01 78.1 81.0----
2024-02-29 05:54 am NE 6.0 8.0----30.04- 78.1 81.0----
2024-02-29 05:48 am NE 7.0 9.9----30.03- 78.1 81.0----
2024-02-29 05:42 am NE 4.1 9.9----30.03- 78.1 81.0----
2024-02-29 05:36 am NE 6.0 12.0----30.03- 78.1 81.0----
2024-02-29 05:30 am NE 8.0 11.1----30.02- 78.1 81.0----
2024-02-29 05:24 am NE 6.0 13.0----30.02- 78.1 81.0----
2024-02-29 05:18 am NE 8.0 11.1----30.02- 77.9 81.0----
2024-02-29 05:12 amENE 7.0 11.1----30.02- 77.9 81.0----
2024-02-29 05:06 am NE 8.0 11.1----30.02- 77.9 81.1----
2024-02-29 05:00 am NE 7.0 8.9----30.02-0.02 77.9 81.1----
2024-02-29 04:54 amENE 5.1 8.9----30.02- 77.9 81.1----
2024-02-29 04:48 am NE 7.0 9.9----30.02- 78.1 81.1----
2024-02-29 04:42 am NE 11.1 13.0----30.02- 78.1 81.1----
2024-02-29 04:36 am NE 7.0 11.1----30.02- 78.1 81.1----
2024-02-29 04:30 am NE 8.9 9.9----30.02- 78.3 81.1----
2024-02-29 04:24 amENE 5.1 8.9----30.02- 78.1 81.1----
2024-02-29 04:18 amENE 6.0 11.1----30.02- 78.1 81.1----
2024-02-29 04:12 am NE 7.0 12.0----30.01- 78.3 81.1----
2024-02-29 04:06 am NE 8.9 13.0----30.02- 78.4 81.1----
2024-02-29 04:00 am NE 11.1 14.0----30.02-0.03 78.4 81.1----
2024-02-29 03:54 am NE 11.1 15.0----30.02- 78.4 81.1----
2024-02-29 03:48 am NE 9.9 14.0----30.02- 78.4 81.1----
2024-02-29 03:42 am NE 11.1 15.0----30.02- 78.6 81.1----
2024-02-29 03:36 am NE 12.0 15.0----30.02- 78.4 81.1----
2024-02-29 03:30 am NE 8.9 15.0----30.02- 78.4 81.1----
2024-02-29 03:24 am NE 8.9 12.0----30.02- 78.4 81.1----
2024-02-29 03:18 am NE 9.9 13.0----30.02- 78.4 81.1----
2024-02-29 03:12 am NE 11.1 13.0----30.02- 78.4 81.1----
2024-02-29 03:06 am NE 12.0 15.9----30.02- 78.4 81.1----
2024-02-29 03:00 am NE 12.0 14.0----30.03-0.03 78.4 81.1----
2024-02-29 02:54 am NE 11.1 14.0----30.03- 78.4 81.1----
2024-02-29 02:48 amNNE 11.1 14.0----30.03- 78.6 81.1----
2024-02-29 02:42 am NE 11.1 14.0----30.03- 78.4 81.1----
2024-02-29 02:36 am NE 12.0 15.9----30.03- 78.6 81.1----
2024-02-29 02:30 am NE 11.1 14.0----30.03- 78.4 81.1----
2024-02-29 02:24 am NE 8.0 9.9----30.03- 78.4 81.1----
2024-02-29 02:18 am NE 8.0 12.0----30.03- 78.4 81.1----
2024-02-29 02:12 am NE 8.0 11.1----30.04- 78.4 81.1----
2024-02-29 02:06 am NE 9.9 13.0----30.04- 78.4 81.1----
2024-02-29 02:00 am NE 8.9 15.0----30.04-0.02 78.6 81.1----
2024-02-29 01:54 am NE 9.9 12.0----30.04- 78.6 81.1----
2024-02-29 01:48 am NE 6.0 12.0----30.04- 78.6 81.1----
2024-02-29 01:42 am NE 8.9 13.0----30.05- 78.6 81.1----
2024-02-29 01:36 am NE 11.1 15.0----30.05- 78.8 81.1----
2024-02-29 01:30 am NE 8.9 13.0----30.05- 78.6 81.1----
2024-02-29 01:24 am NE 11.1 13.0----30.05- 78.6 81.1----
2024-02-29 01:18 am NE 8.9 14.0----30.05- 78.6 81.1----
2024-02-29 01:12 am NE 11.1 13.0----30.05- 78.6 81.1----
2024-02-29 01:06 am NE 8.9 13.0----30.05- 78.6 81.3----
2024-02-29 01:00 am NE 9.9 12.0----30.05-0.01 78.6 81.1----
2024-02-29 12:54 am NE 11.1 14.0----30.05- 78.6 81.1----
2024-02-29 12:48 am NE 13.0 15.9----30.06- 78.8 81.3----
2024-02-29 12:42 am NE 13.0 15.9----30.06- 78.8 81.3----
2024-02-29 12:36 am NE 11.1 15.0----30.06- 78.8 81.3----
2024-02-29 12:30 amNNE 11.1 15.0----30.06- 78.8 81.3----
2024-02-29 12:24 am NE 11.1 15.0----30.06- 78.8 81.3----
2024-02-29 12:18 am NE 8.0 12.0----30.06- 78.8 81.3----
2024-02-29 12:12 am NE 8.9 14.0----30.06- 78.8 81.3----
2024-02-29 12:06 am NE 9.9 13.0----30.06- 78.8 81.3----
2024-02-29 12:00 amENE 6.0 8.9----30.06+0.00 78.8 81.3----
2024-02-28 11:54 pm NE 9.9 15.0----30.06- 78.8 81.3----
2024-02-28 11:48 pm NE 7.0 11.1----30.06- 78.8 81.3----
2024-02-28 11:42 pmENE 6.0 8.0----30.06- 78.6 81.3----
2024-02-28 11:36 pmENE 6.0 11.1----30.06- 78.8 81.3----
2024-02-28 11:30 pmENE 6.0 12.0----30.06- 78.8 81.3----
2024-02-28 11:24 pm NE 8.9 12.0----30.06- 78.8 81.3----
2024-02-28 11:18 pmENE 6.0 14.0----30.06- 78.6 81.3----
2024-02-28 11:12 pmENE 6.0 9.9----30.06- 78.6 81.3----
2024-02-28 11:06 pm E 5.1 11.1----30.06- 78.6 81.3----
2024-02-28 11:00 pmENE 6.0 11.1----30.06+0.01 78.6 81.3----
2024-02-28 10:54 pmENE 6.0 8.9----30.06- 78.6 81.3----
2024-02-28 10:48 pmENE 6.0 14.0----30.06- 78.8 81.3----
2024-02-28 10:42 pm NE 9.9 17.1----30.06- 78.8 81.3----
2024-02-28 10:36 pmENE 6.0 8.9----30.06- 78.6 81.3----
2024-02-28 10:30 pmENE 5.1 9.9----30.06- 78.8 81.3----
2024-02-28 10:24 pmENE 5.1 12.0----30.06- 78.8 81.3----
2024-02-28 10:18 pm NE 12.0 14.0----30.06- 79.0 81.3----
2024-02-28 10:12 pm NE 8.9 15.0----30.06- 79.0 81.1----
2024-02-28 10:06 pm NE 11.1 15.9----30.06- 79.0 81.3----
2024-02-28 10:00 pm NE 12.0 14.0----30.06+0.04 79.0 81.3----
2024-02-28 09:54 pm NE 12.0 14.0----30.06- 79.2 81.3----